GOES 15

Last updated on Sun Jun 21 2026 00:02:55 GMT+0000 (Coordinated Universal Time)

1 36411U 10008A 26171.11943681 .00000015 00000+0 00000+0 0 9998 2 36411 1.2866 82.8036 0004924 42.0631 250.1257 1.00266729 59663
UTC large
Height (km)
Speed (km/s)
/
Latitude / Longitude
Inclination (degrees)
Orbital Period (minutes)
Azimuth
Elevation
Range (km)
Doppler Factor

Next 0 passes for location: London (51.5072 / 0.1276)

No passes found over London.
GOES 15